www.pogodaiklimat.ru
ПОГОДА в Ики-Буруле
Время
(UTC), дата
06 30.05
09 30.05
12 30.05
15 30.05
18 30.05
21 30.05
00 31.05
03 31.05
06 31.05
09 31.05
12 31.05
15 31.05
18 31.05
21 31.05
00 1.06
03 1.06
06 1.06
09 1.06
12 1.06
15 1.06
18 1.06
21 1.06
00 2.06
03 2.06
06 2.06
09 2.06
12 2.06
15 2.06
18 2.06
21 2.06
00 3.06
03 3.06
06 3.06
09 3.06
12 3.06
15 3.06
18 3.06
21 3.06
00 4.06
03 4.06
06 4.06
09 4.06
12 4.06
15 4.06
18 4.06
21 4.06
00 5.06
03 5.06
06 5.06
09 5.06
12 5.06
15 5.06
18 5.06
21 5.06
00 6.06
03 6.06
Ветер
(напр.,м/с)
Видим. Явления Облачность Т
(С)
Тd
(С)
f
(%)
Тe
(С)
Тes
(С)
Комфортность P
(гПа)
Po
(гПа)
Тmin
(С)
Tmax
(С)
R
(мм)
R24
(мм)
S
(см)
З 7-14
{15}
20 км 6/0
[Ac trans]
+19.5 +11.0 58 +20 +22 1013.0 999.8
З 8-14
{15}
20 км 4/0
[Ac trans Cc]
+22.7 +9.1 42 +24 +27 комфорт 1014.0 1001.0
СЗ 6-11
{14}
20 км 6/0
[Ac trans Ci sp]
+24.3 +8.7 37 +25 +28 комфорт 1014.5 1001.5
СЗ 5
{13}
20 км 9/0
[Ac cast]
+22.9 +8.1 39 +24 +24 комфорт 1015.9 1002.8 +24.4
СЗ 3 20 км ясно +19.3 +8.7 50 +20 +20 1016.9 1003.6
СЗ 1 20 км 3/0
[Ac trans]
+14.9 +9.0 68 +15 +15 1017.5 1004.0
З 1 20 км 10/0
[Ac und]
+14.8 +9.5 71 +15 +15 1017.4 1004.0
штиль 0 20 км 9/6 600 м
[Cb cap Ac trans]
+15.4 +11.3 77 +15 +16 1018.1 1004.7 +14.3
СЗ 1 20 км в посл. час ливневой дождь 9/6 600 м
[Cb cap Ac trans Ci sp]
+17.7 +12.4 71 +19 +22 1018.5 1005.2
Ю 2 20 км 6/3 1000 м
[Cu hum Ac lent Ci sp]
+24.2 +7.8 35 +25 +35 комфорт 1017.3 1004.2
ЮЗ 2 20 км 8/6 1000 м
[Cu med, cong Ci sp]
+25.5 +8.5 34 +26 +30 жарко 1015.7 1002.8
штиль 0 20 км 8/4 1000 м
[Cb calv Ac cuf Ci sp]
+26.0 +7.6 31 +26 +27 жарко 1014.5 1001.6 +27.0 0.3
ЮВ 1 20 км гроза без осадков 9/4 1000 м
[Cb cap Ac trans]
+22.0 +9.6 45 +24 +24 комфорт 1015.0 1001.9
СВ 2
{13}
20 км {гроза, ливн. осадки} 8/0
[Ac trans]
+17.1 +12.0 72 +17 +17 1014.9 1001.6
В 2 20 км {гроза, ливн. осадки} 3/0
[Ci fib]
+14.2 +11.6 84 +14 +14 1014.1 1000.6
В 3 20 км 6/0
[Ac trans Cc]
+16.9 +11.2 69 +17 +18 1013.8 1000.4 +14.1 3
В 3 20 км 8/0
[Ac cast Cc]
+24.5 +10.3 41 +26 +32 жарко 1012.3 999.3
В 4
{13}
10 км слаб. ливневой дождь 9/8 1000 м
[Cb cap Ac cast]
+23.6 +10.3 43 +25 +26 комфорт 1011.7 998.7
СВ 5 20 км {ливн. осадки} 9/6 1000 м
[Cb cap Ac cuf]
+24.5 +10.8 42 +26 +27 жарко 1009.3 996.3
В 5
{11}
20 км 5/3 1000 м
[Sc diur, vesp Ci fib]
+26.9 +7.2 29 +27 +27 жарко 1008.4 995.6 +28.5 0.0
З 3
{12}
10 км слаб. ливневой дождь 9/9 600 м
[Cb cap]
+18.0 +15.0 83 +18 +18 1012.6 999.3
СВ 4 20 км {ливн. осадки} ясно +15.8 +14.6 93 +15 +15 1010.2 996.9
СВ 3 20 км {ливн. осадки} ясно +14.9 +13.9 94 +14 +14 1009.9 996.5
В 2 20 км 9/9 300 м
[Cb cap]
+16.0 +13.7 86 +16 +16 1009.4 996.1 +14.7 1
СВ 3 20 км {ливн. осадки} 5/0
[Ci fib]
+21.1 +14.8 67 +24 +33 комфорт 1008.4 995.3
СВ 5-10
{10}
20 км 8/0
[Ci]
+28.5 +8.6 29 +28 +37 жарко 1005.7 992.9
СВ 5
{12}
20 км 9/0
[Ac trans Ci]
+31.0 +6.3 21 +29 +34 жарко 1003.5 990.9
В 3
{11}
20 км 3/0
[Ci sp]
+32.2 +10.9 27 +32 +33 жарко 1001.6 989.1 +33.1 0.0
ЮВ 3 20 км 3/0
[Ci sp]
+25.4 +12.4 44 +27 +27 жарко 1002.0 989.2
ЮВ 3 20 км 5/0
[Ci fib]
+22.7 +13.0 54 +26 +26 жарко 1001.3 988.4
ЮВ 2 20 км ясно +17.9 +13.4 75 +18 +18 1000.5 987.4
З 4 20 км 6/0
[Cc]
+17.4 +14.5 83 +17 +18 1001.6 988.5 +16.2
З 7-12
{13}
20 км 3/0
[Ac trans Cc]
+22.9 +13.8 56 +26 +29 жарко 1002.8 989.9
З 7-11
{12}
20 км 8/0
[Ci]
+28.4 +11.6 35 +29 +34 жарко 1003.5 990.9
З 7-12
{14}
20 км 9/0
[Ac trans Ci fib]
+26.3 +11.8 40 +28 +29 жарко 1004.5 991.7
СЗ 6-11
{13}
20 км 9/6 1000 м
[Cb cap Ac cast]
+24.0 +12.5 49 +26 +26 жарко 1006.2 993.3 +28.8
З 3
{14}
20 км в посл. час ливневой дождь 9/9 600 м
[Cb cap]
+16.7 +14.5 87 +16 +16 1007.8 994.6
З 1
{10}
20 км 9/0
[Ac trans Ci fib]
+16.5 +13.6 83 +17 +17 1010.3 997.1
З 1 20 км ясно +14.2 +13.5 96 +14 +14 1011.0 997.6
З 2 20 км ясно +15.2 +14.1 93 +15 +17 1012.5 999.2 +13.4 0.8
СЗ 3 20 км 4/4 600 м
[Cu hum]
+20.7 +14.0 65 +24 +30 комфорт 1012.8 999.7
З 3 20 км 5/3 1000 м
[Cu hum Ci fib]
+25.1 +10.2 39 +26 +36 жарко 1012.5 999.6
З 2 20 км 8/3 1000 м
[Cu hum Ac cast Ci fib]
+26.8 +7.4 29 +26 +32 жарко 1011.9 999.0
С 2 20 км 6/0
[Ac cast Ci fib]
+26.5 +6.6 28 +26 +27 жарко 1011.7 998.8 +27.7
В 2 20 км 6/3 1000 м
[Cb cap Ac cuf]
+23.2 +8.9 40 +25 +25 комфорт 1012.3 999.3
С 3
{15}
20 км в посл. час гроза {ливн. осадки} 5/5 600 м
[Cb cap]
+16.8 +13.7 82 +17 +17 1014.3 1000.9
В 3
{11}
4000 м ливневой дождь {гроза} 10/10 300 м
[Cb cap]
+15.3 +13.6 90 +15 +15 1016.0 1002.6
З 2 20 км {ливн. осадки} 8/4 300 м
[Cb cap Ac cuf]
+16.1 +14.6 91 +16 +17 1017.6 1004.2 +14.4 7
З 3 20 км {ливн. осадки} 9/3 600 м
[Cb cap Ac trans Cc]
+17.5 +14.0 80 +18 +22 1019.0 1005.7
З 3 20 км 8/8 600 м
[Cu med, cong]
+21.8 +14.3 62 +25 +28 комфорт 1019.0 1005.8
З 5 20 км 4/4 1000 м
[Cu hum]
+24.5 +11.5 44 +26 +30 жарко 1018.5 1005.5
З 3 20 км 1/1 1000 м
[Cu hum]
+23.8 +9.8 41 +25 +26 комфорт 1018.8 1005.7 +24.9
штиль 0 20 км ясно +17.7 +11.4 67 +18 +18 1020.2 1006.8
штиль 0 20 км ясно +15.3 +11.7 79 +15 +15 1020.2 1006.7
СВ 1 20 км 6/0
[Ac trans]
+15.0 +11.2 78 +16 +16 1020.0 1006.5
В 1 20 км 8/0
[Ac cast]
+17.3 +12.3 72 +18 +19 1021.3 1007.9 +13.7
Местоположение метеостанции Ики-Бурул (Калмыкия, Россия): широта 45.80 долгота 44.63 высота над уровнем моря 113 м.
В архиве по умолчанию представлена погода в Ики-Буруле за последнюю неделю. Архивные данные за месяц целиком и за предыдущие месяцы, начиная с января 2011 года, Вы можете получить, выбрав интересующий диапазон дат из раскрывающегося списка и нажав кнопку "Найти!".
*Определитесь, кто Вы:
Внимание! Время в таблицах - всемирное. Для получения местного времени необходимо прибавить поправку, которая равна 3 ч.
Смотрите также архив погоды в соседних городах и на ближайших метеорологических станциях:
Партнеры нашего сайта:      
Пояснения к столбцам:
  • Ветер - указаны скорость ветра в м/с - средняя за 10 мин, порывы в срок и между сроками (в фигурных скобках) и направление, откуда дует ветер: С - северный,
  • СВ - северо-восточный, В - восточный, ЮВ - юго-восточный, Ю - южный, ЮЗ - юго-западный, З - западный, СЗ - северо-западный.
  • Видимость - горизонтальная дальность видимости в метрах или километрах. При видимости от 1 до 10 км при отсутствии осадков обычно наблюдается дымка, при ухудшении видимости до 1 км и менее - туман. В сухую погоду видимость может ухудшаться дымом, пылью или мглою.
  • Явления - указаны атмосферные явления, наблюдавшиеся в срок или в последний час перед сроком; фигурными скобками обозначены явления, наблюдавшиеся между сроками (за 1-3 часа до срока); квадратными скобками обозначены град или гололедные отложения с указанием их диаметра в мм.
  • Облачность - указаны через наклонную черту общая и нижняя облачность в баллах и высота нижней границы облаков в метрах; квадратными скобками обозначены формы облаков: Ci - перистые, Cs - перисто-слоистые, Cc - перисто-кучевые, Ac - высококучевые, As - высокослоистые, Sc - слоисто-кучевые, Ns - слоисто-дождевые, Cu - кучевые, Cb - кучево-дождевые. Подробнее классификацию облаков см. в Атласе облаков (PDF).
  • T - Температура воздуха - температура, измеренная на высоте 2 м над землей.
  • Td - Температура точки росы - температура, при понижении до которой содержащийся в воздухе водяной пар достигнет насыщения.
  • f - Относительная влажность воздуха - влажноcть воздуха, измеренная на высоте 2 м над землей.
  • Te - Эффективная температура - температура, которую ощущает одетый по сезону человек в тени. Характеристика душности погоды. При расчете учитывается влияние влажности воздуха и скорости ветра на теплоощущения человека.
  • Tes - Эффективная температура на солнце - температура, которую ощущает человек, с поправкой на солнечный нагрев. Характеристика знойности погоды. Зависит от высоты солнца над горизонтом, облачности и скорости ветра. Ночью, в пасмурную погоду, а также при ветре 12 м/с и более поправка равна нулю.
  • P - Атмосферное давление - приведенное к уровню моря атмосферное давление.
  • Po - Атмосферное давление - измеренное на уровне метеостанции атмосферное давление.
  • Tmin - Минимальная температура - минимум температуры воздуха на высоте 2 м над землей.
  • Tmax - Максимальная температура - максимум температуры воздуха на высоте 2 м над землей.
  • R - Количество осадков - Количество выпавших осадков за период времени, мм. При наведении курсора мыши на число - период времени, за который выпало указанное количество осадков.
  • R24 - Количество осадков - Количество выпавших осадков за 24 часа, мм.
  • S - Снежный покров - Высота снежного покрова, см. При наведении курсора мыши на число - состояние снежного покрова и степень покрытия местности в баллах.